User: anonymous   Login
Location: Caltech
(34.1382°N, 118.1253°W)
Time: 04:20:36
(UTC-07:00)
Language:

Oscar 19 - Orbit

View from above orbital plane
View from above orbital plane
View from above satellite
View from above satellite

Ground track
Ground track

The orbit data is extracted from the following two-line orbital elements,

1 20442U 90005G   17117.86612107 +.00000023 +00000-0 +24418-4 0  9992
2 20442 098.5731 054.8995 0010762 299.8881 060.1233 14.32857185424355
Epoch (UTC): 27 April 2017 20:47:12
Eccentricity: 0.0010762
inclination: 98.5731°
perigee height: 774 km
apogee height: 790 km
right ascension of ascending node: 54.8995°
argument of perigee: 299.8881°
revolutions per day: 14.32857185
mean anomaly at epoch: 60.1233°
orbit number at epoch: 42435

The dashed part of the orbit path shows where the satellite is in the earth's shadow,  

DLR